Location: Proctor
(47.8934°N, 114.3048°W)
Time: 21:26:34
(UTC+00:00)

Tiros 1 despin weight - Pass Details

Date: 28 June 2024
Orbit: 576 x 620 km, 48.2° (Epoch: 19 July)

Event Time Altitude Azimuth Distance (km) Brightness Sun altitude
Rises 20:20:24 0° 273° (W) 2,889 ? 64.1°
Reaches altitude 10° 20:22:42 10° 273° (W) 1,986 ? 63.9°
Maximum altitude 20:27:17 86° 1° (N) 628 ? 63.6°
Drops below altitude 10° 20:31:53 10° 93° (E) 1,986 ? 63.3°
Sets 20:34:11 0° 94° (E) 2,888 ? 63.1°
